Location: Madrid
(40.4000°N, 3.6830°W)
Time: 15:30:57
(UTC+02:00)

ISS - Pass Details

Date: 16 September 2019
Orbit: 411 x 421 km, 51.6° (Epoch: 18 September)

Event Time Altitude Azimuth Distance (km) Brightness Sun altitude
Exits shadow 06:20:24 30° 175° (S) 771 -2.6 -18.6°
Drops below altitude 10° 06:22:27 10° 151° (SSE) 1,483 -0.9 -18.2°
Sets 06:24:36 0° 144° (SE) 2,344 0.3 -17.8°
